This is the latest recevied weather packets stored in our database for station/object N0SWP-3. If no packets are shown the sender has not sent any weather packets the latest 10 day(s).
| Time | Temp. | Humidity | Pressure | Rain* | Wind** | Luminosity | Snow |
|---|---|---|---|---|---|---|---|
| 1777992797 | 8.33° C | 90% | 1011.7 hPa | 2.54 mm | - | - | - |
| 1777992483 | 8.33° C | 90% | 1011.9 hPa | 2.54 mm | - | - | - |
| 1777991943 | 8.33° C | 90% | 1012 hPa | 3.05 mm | - | - | - |
| 1777991223 | 8.33° C | 91% | 1012.4 hPa | 3.3 mm | - | - | - |
| 1777989963 | 8.89° C | 88% | 1012.3 hPa | 2.29 mm | - | - | - |
| 1777989423 | 8.89° C | 86% | 1011.8 hPa | 1.27 mm | - | - | - |
| 1777989243 | 8.89° C | 87% | 1011.7 hPa | 1.02 mm | - | - | - |
| 1777988883 | 8.89° C | 87% | 1012.5 hPa | 1.02 mm | - | - | - |
| 1777987757 | 9.44° C | 84% | 1011.6 hPa | 0.51 mm | - | - | - |
| 1777986677 | 9.44° C | 84% | 1012.1 hPa | 0 mm | - | - | - |
| 1777985823 | 10° C | 82% | 1010.1 hPa | 0 mm | - | - | - |
| 1777984384 | 10° C | 82% | 1009.5 hPa | 0 mm | - | - | - |
| 1777983123 | 9.44° C | 81% | 1009.7 hPa | 0.25 mm | - | - | - |
| 1777980558 | 10° C | 79% | 1009.1 hPa | 0 mm | - | - | - |
| 1777978983 | 10.56° C | 74% | 1009.2 hPa | 0 mm | - | - | - |
| 1777978804 | 10.56° C | 74% | 1009.2 hPa | 0 mm | - | - | - |
| 1777978443 | 10.56° C | 75% | 1009.1 hPa | 0 mm | - | - | - |
| 1777976777 | 10.56° C | 79% | 1008.5 hPa | 0 mm | - | - | - |
| 1777976283 | 10.56° C | 79% | 1009.2 hPa | 0 mm | - | - | - |
| 1777975563 | 10.56° C | 79% | 1009.4 hPa | 0 mm | - | - | - |
| 1777974484 | 10.56° C | 79% | 1008.9 hPa | 0 mm | - | - | - |
| 1777973944 | 10.56° C | 78% | 1008.2 hPa | 0 mm | - | - | - |
| 1777973763 | 10.56° C | 79% | 1008.3 hPa | 0 mm | - | - | - |
| 1777973403 | 10.56° C | 79% | 1008.6 hPa | 0 mm | - | - | - |
| 1777973223 | 10.56° C | 80% | 1008.6 hPa | 0 mm | - | - | - |
* Rain latest hour (hover to see other rain measurements)
** Current wind speed in m/s (hover to see current wind gust speed)